Theta_e
318 315 315 314 313 312 312 313 313 313 316 316 315 314 314 314 313 313 312 310 309 307 307 305 304 304 304 302 302 301 299 298 298 298 298 298 297 295 294 293 293 293 292 290
315 317 315 313 313 314 314 315 316 315 315 313 314 313 312 312 311 310 309 307 306 305 304 303 303 303 303 302 301 300 300 299 298 297 298 298 297 293 293 293 293 292 290 289
314 314 312 312 315 314 314 314 314 315 314 313 312 311 310 310 309 307 305 305 305 303 302 302 301 301 302 301 301 301 300 299 298 297 296 296 294 293 293 292 291 290 289 289
307 308 306 315 313 314 315 314 314 314 314 312 312 310 310 309 307 305 304 303 301 301 301 301 301 300 299 298 297 297 297 297 298 297 296 295 294 294 293 292 290 289 288 288
311 311 312 314 315 315 314 315 314 314 312 311 310 310 308 307 303 302 302 302 302 301 299 298 297 296 296 295 295 295 295 295 295 295 295 294 294 293 292 290 289 289 288 288
302 304 306 312 313 313 313 310 313 312 310 309 308 305 305 304 302 301 301 301 298 297 296 295 295 295 294 294 294 294 294 295 295 294 294 294 293 292 290 289 289 289 288 288
303 303 308 312 313 313 310 310 311 311 309 307 306 306 305 302 301 301 299 298 297 296 295 294 294 294 294 294 294 294 293 293 293 293 294 294 291 290 289 289 288 288 288 287
310 309 308 313 314 310 311 313 311 309 308 306 305 303 302 301 300 298 297 296 296 295 295 294 294 294 294 294 293 293 293 293 291 293 293 292 292 290 289 288 288 287 287 285
309 308 310 314 314 314 314 311 310 307 306 304 303 301 301 299 297 297 296 295 295 294 294 294 294 294 294 293 293 293 292 291 290 292 291 291 290 289 288 288 287 287 285 284
312 314 314 314 313 312 311 310 309 307 303 301 301 300 298 297 296 295 294 294 294 293 294 294 294 293 294 293 293 293 292 291 290 290 290 289 289 289 288 286 286 285 284 284
311 312 312 311 311 310 309 307 304 301 300 300 298 297 296 295 295 294 294 293 293 293 293 293 292 292 293 293 293 292 292 290 289 289 289 289 288 287 286 286 285 284 284 283
307 314 313 311 309 309 306 303 301 301 300 299 297 296 295 295 294 293 293 292 291 291 292 291 291 292 292 293 292 292 291 289 288 288 288 287 286 285 285 285 284 283 283 283
314 313 313 310 309 306 304 302 301 300 298 296 296 295 294 294 293 292 290 290 290 291 291 289 289 289 290 290 290 290 289 288 287 287 287 286 285 285 284 283 283 283 283 282
312 310 307 307 306 304 302 301 298 297 296 296 295 294 294 293 291 290 290 290 290 290 289 289 289 289 288 288 289 288 288 287 287 286 284 284 284 284 283 283 283 283 282 282
309 308 307 305 303 302 301 297 297 296 295 295 294 293 292 290 290 290 290 290 290 289 289 289 289 289 289 288 287 287 286 286 285 285 284 283 284 284 283 283 283 282 282 282
307 306 303 303 300 298 297 296 296 296 295 294 292 291 291 290 290 290 290 290 289 289 289 289 289 289 289 288 287 287 286 286 285 284 283 283 283 283 283 283 282 282 282 282
304 302 299 298 297 297 296 296 295 295 294 291 291 291 291 290 290 290 290 290 289 289 289 289 289 288 288 286 286 286 285 285 285 283 283 283 283 283 283 283 282 283 282 282
301 298 297 296 296 295 295 295 294 292 291 291 291 291 290 291 291 290 290 290 289 289 289 288 288 288 288 287 286 285 284 283 283 283 283 283 283 283 283 283 283 283 282 282
297 296 295 295 295 293 292 290 290 291 291 291 291 290 291 291 291 289 289 289 288 289 288 288 288 288 287 286 285 283 283 283 283 283 283 283 283 283 283 284 284 283 282 282
296 295 295 292 292 291 290 290 290 290 291 291 291 291 291 291 289 289 288 288 289 289 288 288 288 288 287 286 285 284 284 283 283 283 283 283 283 283 283 283 283 283 283 282
296 295 293 292 291 290 290 291 291 291 291 291 291 292 292 291 290 289 288 288 289 289 288 287 288 287 286 285 285 285 285 284 284 283 283 283 283 283 283 283 283 283 282 282
293 292 291 290 291 290 291 290 291 291 291 292 292 292 291 291 290 289 288 288 289 289 288 287 287 287 286 286 286 285 285 284 283 283 283 283 283 283 283 283 283 283 283 282
292 291 291 291 291 291 291 291 292 292 292 292 292 292 290 289 289 288 288 288 288 288 287 287 287 287 287 286 286 286 285 284 283 283 283 283 282 282 282 282 282 282 282 282
293 291 291 291 291 291 292 291 292 292 292 292 292 291 289 288 288 289 289 288 287 287 287 288 287 287 287 287 286 286 286 285 284 283 283 283 282 282 282 281 282 282 282 282
291 291 291 292 292 292 292 292 292 293 292 292 291 290 288 287 287 287 287 287 286 286 287 287 287 287 287 287 287 287 286 286 285 284 283 283 282 281 281 281 281 281 281 282
292 292 292 292 293 293 293 292 292 292 291 290 290 288 286 286 286 286 286 286 286 286 287 287 287 287 287 287 287 288 287 286 286 284 283 283 282 282 281 281 281 280 280 280
292 293 293 293 292 292 292 292 291 290 289 289 288 286 286 286 286 286 286 285 286 286 286 286 286 287 287 287 287 287 288 287 286 285 283 283 282 282 281 281 281 281 281 281
Wind_Speed
5 6 4 3 5 7 5 6 3 7 3 6 10 9 14 17 16 15 16 17 19 17 20 22 18 13 16 17 24 28 27 27 25 25 30 28 26 21 21 17 15 18 20 21
3 7 7 4 8 8 4 2 3 4 4 14 15 17 20 16 14 13 12 15 19 20 21 17 17 17 19 25 29 25 24 28 29 30 30 31 25 18 16 17 18 16 18 20
3 5 6 4 3 4 3 5 3 3 3 12 15 16 15 13 12 13 15 20 19 18 15 18 20 22 25 25 30 31 29 28 33 25 24 22 16 17 18 14 16 14 19 21
2 4 3 4 5 7 5 7 7 10 11 15 14 11 8 10 15 16 18 17 17 18 20 22 22 20 19 21 23 25 28 29 24 26 24 24 19 14 12 15 15 18 17 20
3 1 6 6 2 3 4 2 6 7 9 10 11 1 5 12 13 13 12 14 18 21 21 18 21 25 28 30 32 34 28 32 33 31 30 18 14 11 14 13 15 15 16 21
2 4 6 6 4 4 0 3 5 10 8 10 14 5 4 13 11 14 16 18 18 19 20 25 24 26 31 33 32 24 29 26 30 32 27 16 19 17 8 13 14 15 19 22
2 3 7 8 0 4 4 5 10 7 4 4 2 3 10 9 13 15 17 19 20 22 25 23 27 31 33 26 23 27 31 31 37 33 28 21 7 10 9 11 14 18 21 25
2 2 7 10 5 6 5 11 10 3 2 1 2 2 7 10 14 16 17 20 23 23 23 26 31 28 24 27 24 28 32 35 36 29 12 10 14 9 11 15 17 20 23 26
8 6 8 8 7 10 10 13 3 1 3 1 1 4 7 11 13 17 21 24 21 23 29 29 28 24 30 24 26 32 35 32 29 17 21 13 10 10 11 16 20 21 24 25
4 6 8 17 16 12 9 5 4 5 3 1 3 7 10 12 15 19 20 20 26 29 27 28 29 31 28 29 31 36 31 31 23 22 13 8 9 13 16 19 17 19 22 22
2 7 14 11 12 8 1 1 6 7 4 2 4 9 8 12 17 17 19 25 27 27 30 34 36 34 27 26 26 29 27 30 21 15 11 8 12 17 14 14 17 19 19 20
5 6 5 8 12 3 1 9 8 4 1 4 6 7 12 15 15 19 25 26 28 30 33 33 34 32 29 26 29 25 28 25 10 8 9 13 15 13 11 14 16 16 17 19
8 8 6 8 8 4 10 9 6 3 2 3 8 12 14 15 19 21 25 26 29 31 31 35 29 29 27 27 26 26 24 15 10 9 12 14 13 12 14 12 12 15 16 18
8 8 8 8 4 10 11 7 5 1 4 9 12 14 17 19 20 24 25 28 28 29 33 31 30 28 24 22 23 18 11 10 9 9 10 11 11 11 11 13 17 16 16 17
8 2 5 8 8 9 6 4 0 4 8 12 15 18 20 20 23 26 27 28 27 30 31 28 27 24 20 23 16 9 7 9 10 12 12 9 10 10 12 14 15 15 15 16
9 12 10 10 9 7 2 3 5 9 14 16 19 19 19 23 25 27 28 28 27 31 30 25 24 20 19 18 12 8 7 9 10 13 12 12 11 10 12 13 15 15 15 16
17 12 12 8 4 1 2 7 11 14 19 19 17 19 22 24 27 29 30 27 25 27 23 21 20 18 18 11 8 9 9 12 14 16 10 10 10 11 11 15 12 13 14 16
11 13 11 7 2 3 7 12 17 19 17 17 18 19 21 26 29 32 30 27 26 26 20 18 21 17 14 11 13 13 13 15 11 11 12 11 10 11 12 12 12 14 15 18
11 8 5 2 5 10 13 16 15 14 17 17 18 20 25 28 29 27 26 26 23 26 25 23 19 14 13 14 14 15 11 11 12 12 11 10 11 11 12 14 14 15 15 16
7 3 3 9 11 13 14 14 15 18 18 18 19 24 25 28 26 23 25 27 22 21 25 22 19 15 15 14 13 15 20 14 12 13 12 12 12 14 14 15 15 16 15 16
4 8 12 15 16 15 15 16 17 19 18 18 20 22 26 27 25 25 31 28 22 20 22 24 21 17 15 15 17 17 21 18 14 15 15 14 14 14 15 15 15 16 17 17
9 14 16 15 15 17 17 19 19 19 18 19 20 23 25 27 28 32 24 22 22 22 24 24 23 20 18 18 20 21 22 21 19 17 17 17 18 19 20 18 17 16 17 18
15 14 15 16 17 19 21 18 15 16 19 20 22 23 29 29 30 30 30 24 24 28 27 25 24 24 22 20 21 21 20 20 18 17 17 18 20 19 19 20 17 16 17 17
18 18 19 19 20 20 17 16 18 19 21 22 21 26 30 30 31 27 25 31 27 28 27 24 27 25 24 22 22 23 21 20 19 19 19 20 21 20 21 20 18 17 16 15
19 20 19 19 19 19 19 21 23 25 23 25 31 32 33 26 25 27 27 27 27 25 24 23 23 23 22 22 24 25 25 24 21 20 20 21 22 21 19 18 18 17 19 19
20 21 21 20 20 20 19 21 23 23 27 32 33 33 27 22 20 21 22 23 23 23 23 23 23 22 23 24 25 26 26 27 25 21 21 21 22 20 20 21 18 17 16 17
24 25 23 22 20 21 23 24 23 26 29 26 30 27 22 20 20 21 23 24 23 23 24 25 25 24 24 25 27 28 28 28 26 23 19 21 20 19 20 20 19 18 17 16
Wind_Direction
4 351 335 344 340 331 308 262 193 262 221 66 68 92 80 64 45 26 12 360 350 339 329 330 331 329 329 310 312 315 310 308 309 300 294 286 293 304 317 310 305 305 306 312
319 23 18 321 301 276 252 353 8 39 3 109 88 63 67 57 52 42 7 342 341 340 340 348 346 329 317 315 315 311 300 302 306 305 285 295 292 306 302 295 296 301 309 308
267 355 346 10 236 316 322 10 327 36 33 64 57 73 64 58 27 355 350 348 342 346 352 341 333 325 308 311 317 309 314 315 309 313 298 292 279 301 296 296 297 310 315 312
221 0 25 235 289 96 87 30 11 76 67 64 57 101 75 17 357 351 352 352 358 354 339 327 326 331 333 329 334 336 326 324 313 312 295 278 292 288 293 285 306 319 311 310
113 219 299 328 28 80 103 85 54 88 75 61 20 201 132 357 356 1 1 352 337 334 344 352 339 333 333 330 328 332 331 331 329 330 319 301 271 274 286 307 322 309 313 311
80 136 210 218 117 87 337 238 69 90 63 13 9 23 287 339 0 359 350 346 355 344 336 337 339 333 332 330 330 330 332 333 331 328 327 305 322 308 303 324 303 309 313 312
182 211 281 249 312 89 108 230 127 108 66 11 104 235 310 353 349 346 345 336 331 332 335 331 325 329 330 329 330 320 316 320 323 326 312 310 313 307 318 299 305 312 313 318
192 232 277 204 85 150 158 133 130 85 352 245 294 355 349 340 332 337 341 340 338 336 326 326 330 331 322 326 323 316 320 326 330 324 319 305 273 281 297 301 313 317 318 321
180 213 225 180 160 172 199 158 151 81 182 309 132 330 326 331 337 336 336 337 333 326 331 334 331 328 325 319 313 318 321 329 333 333 329 305 307 299 295 312 315 319 324 328
110 253 152 145 156 165 157 155 309 290 170 130 292 318 340 334 335 334 332 326 325 329 331 327 320 322 323 317 313 317 322 326 323 326 321 299 290 297 308 315 317 324 326 329
278 110 108 151 170 155 87 277 153 127 128 277 339 334 332 334 334 329 322 325 326 324 319 316 316 318 322 315 309 311 316 324 325 325 299 302 309 316 317 318 321 326 330 333
231 210 182 179 179 168 106 139 128 151 244 321 315 320 323 326 321 317 320 325 325 319 318 318 315 310 313 307 315 308 321 326 326 317 313 314 318 318 312 315 323 337 338 336
173 164 140 138 163 172 148 143 172 181 312 319 320 317 315 311 312 317 325 328 324 319 318 322 328 324 314 309 311 319 322 320 311 303 303 309 315 314 317 332 339 339 337 334
166 147 123 158 191 171 157 166 167 146 321 320 312 303 303 313 318 326 327 326 323 320 324 328 324 324 323 322 320 315 311 320 319 315 311 312 317 322 331 331 332 338 339 337
163 139 125 136 131 139 166 169 308 315 302 301 301 305 313 321 323 324 323 324 326 322 329 330 328 334 333 327 317 314 318 322 312 315 319 318 317 319 320 322 327 332 334 333
147 133 131 127 138 132 108 357 314 294 289 303 311 314 319 317 318 320 321 326 323 326 330 328 327 331 321 321 312 310 295 303 305 311 311 310 315 316 316 321 324 329 334 331
142 146 142 129 115 103 314 294 291 297 303 310 316 316 315 317 318 321 322 321 321 325 329 328 328 325 320 312 316 316 278 297 297 308 320 316 309 307 310 320 326 331 331 332
138 137 122 124 121 275 282 291 298 300 304 312 313 313 317 321 321 321 324 326 326 333 335 326 325 319 318 315 306 292 289 294 305 311 312 312 308 308 321 320 322 328 329 329
125 124 132 189 282 295 297 299 301 305 310 313 311 318 321 321 324 323 321 321 328 330 330 321 320 313 314 316 311 319 310 294 300 311 311 311 310 310 309 312 313 323 323 324
148 176 294 316 317 316 315 314 312 313 318 314 313 318 322 325 325 322 323 318 316 321 326 311 309 305 307 303 306 315 329 322 303 310 307 304 305 305 315 317 315 315 315 321
273 304 310 315 313 314 318 320 318 318 319 317 319 322 322 321 320 323 323 316 331 313 322 314 308 303 306 301 295 301 306 306 292 296 301 303 302 298 299 301 308 312 313 313
302 305 305 306 310 313 318 319 321 320 319 319 319 319 319 316 316 318 322 315 316 321 317 316 300 296 294 291 290 296 301 302 286 281 287 292 293 294 295 294 298 301 304 310
312 311 312 316 314 313 313 316 318 312 311 315 312 319 325 317 318 317 314 325 315 313 310 307 301 292 288 285 284 291 298 298 286 280 282 288 292 292 288 288 288 290 294 300
311 312 311 310 308 307 307 318 321 315 313 304 297 314 321 315 310 312 309 313 310 311 308 302 306 293 285 280 282 289 293 300 291 282 282 284 289 287 284 286 275 276 285 296
307 308 310 313 313 311 308 312 315 311 305 300 307 312 316 310 303 307 309 309 310 310 309 310 306 301 289 280 283 287 290 291 294 286 280 282 288 290 287 289 286 276 273 277
318 315 312 308 304 302 305 309 308 309 310 308 310 314 321 319 318 321 322 321 319 317 315 314 314 306 298 292 291 291 290 286 286 290 282 281 286 293 295 299 290 283 276 277
312 309 307 302 298 299 300 300 299 303 306 306 308 315 319 323 324 321 320 322 322 318 316 315 312 309 305 298 299 298 293 290 279 285 280 280 284 288 296 298 294 291 287 285